Lapse_Rate
7.4 7.3 7.1 7.2 7.1 7.0 7.2 6.9 7.0 7.0 7.3 7.2 7.3 7.2 7.0 7.0 6.9 7.0 6.9 7.0 7.0 6.9 6.8 6.7 6.7 6.6 6.5 6.3 6.2 6.0 5.8 5.7 5.4 5.3 5.1 5.1 5.0 4.9 4.7 4.7 4.7 4.8 4.9
7.9 7.5 7.4 7.1 7.1 6.9 7.0 6.9 6.8 7.2 7.4 7.6 7.5 7.4 7.2 7.1 7.1 7.0 7.0 7.1 7.1 7.0 6.9 6.8 6.8 6.8 6.6 6.3 6.1 5.9 5.8 5.5 5.3 5.0 4.9 4.8 4.8 4.9 4.9 5.1 5.0 4.9 4.8
8.1 7.9 7.8 7.6 7.4 7.6 7.3 6.7 6.5 6.9 7.2 7.5 7.6 7.5 7.4 7.3 7.3 7.2 7.2 7.3 7.3 7.2 7.0 6.9 6.9 7.0 6.8 6.5 6.2 6.0 5.9 5.6 5.2 5.1 4.9 4.9 5.0 5.0 5.0 5.1 5.1 5.3 5.2
8.4 8.1 7.9 8.1 8.2 7.9 8.0 7.2 6.9 6.9 7.0 7.6 7.8 7.6 7.6 7.5 7.4 7.3 7.3 7.4 7.4 7.3 7.2 7.2 7.2 7.2 6.9 6.4 6.4 5.9 6.0 5.8 5.5 5.1 5.1 5.0 4.9 4.9 5.1 5.2 5.3 5.3 5.1
8.2 8.2 8.2 8.5 8.4 7.9 7.7 8.0 7.7 7.0 7.2 7.6 7.7 7.7 7.8 7.5 7.4 7.4 7.4 7.5 7.4 7.3 7.3 7.3 7.3 7.5 7.2 7.1 6.7 6.3 6.2 6.0 5.8 5.4 5.0 4.9 5.0 5.1 5.2 5.2 5.2 5.1 5.2
8.5 8.3 8.4 8.6 8.8 8.5 8.1 7.9 8.0 7.8 7.6 7.6 7.5 7.6 7.9 7.7 7.6 7.6 7.6 7.6 7.6 7.5 7.5 7.4 7.4 7.5 7.7 7.5 7.0 6.9 6.7 6.3 6.1 5.6 5.1 4.9 5.0 5.1 5.2 5.2 5.0 5.2 5.2
9.0 8.8 8.7 8.7 9.0 8.9 8.5 8.3 8.5 8.4 8.2 8.1 7.8 7.7 7.9 8.0 7.9 7.8 7.8 7.8 7.7 7.6 7.6 7.6 7.6 7.7 7.7 7.6 7.3 7.1 6.9 6.5 6.3 5.9 5.5 5.1 5.1 5.3 5.2 5.2 5.2 5.2 5.4
9.0 9.1 9.1 9.2 8.9 9.0 9.0 8.7 8.7 8.7 8.5 8.4 8.3 8.0 8.0 8.1 8.1 8.1 8.0 7.9 8.0 7.8 7.8 7.8 7.8 7.7 7.8 7.7 7.3 7.3 7.1 7.0 6.6 6.0 5.9 5.5 5.5 5.3 5.2 5.2 5.2 5.3 5.4
9.0 8.9 8.9 9.1 9.0 8.6 9.0 9.0 8.9 8.8 8.7 8.5 8.5 8.3 8.2 8.2 8.2 8.1 8.1 8.1 7.9 8.0 8.1 8.0 8.0 8.1 8.1 7.7 7.5 7.6 7.4 7.3 6.8 6.3 5.9 5.6 5.3 5.3 5.0 5.2 5.3 5.3 5.6
9.0 8.8 8.9 8.9 9.4 9.3 9.2 9.0 8.9 8.7 8.6 8.8 8.7 8.6 8.5 8.2 8.3 8.3 8.3 8.3 8.1 8.2 8.2 8.1 8.2 8.4 8.3 7.9 7.8 7.1 7.1 7.1 6.7 6.6 6.0 5.4 5.3 5.3 5.2 5.3 5.5 5.6 5.8
8.9 8.8 8.8 8.9 9.0 9.1 9.1 8.9 8.7 8.7 8.6 8.8 8.9 8.7 8.6 8.5 8.4 8.3 8.4 8.4 8.4 8.4 8.4 8.5 8.6 8.4 8.1 7.9 7.7 7.3 7.2 6.6 6.6 6.7 6.1 5.7 5.4 5.2 5.2 5.3 5.5 5.7 6.0
8.6 8.8 8.9 9.0 8.9 9.0 9.0 8.9 8.6 8.5 8.4 8.9 8.6 8.6 8.7 8.7 8.7 8.6 8.5 8.4 8.4 8.3 8.4 8.5 8.6 8.4 7.7 7.4 7.5 7.3 7.1 6.4 6.4 6.4 6.2 5.8 5.4 5.1 5.2 5.4 5.6 5.8 6.2
8.6 8.7 9.1 9.3 9.1 9.0 9.1 9.0 8.4 8.2 8.8 8.4 8.3 8.3 8.3 8.8 8.9 8.8 8.7 8.6 8.7 8.8 8.4 8.3 7.8 7.7 7.9 7.3 7.3 7.3 6.9 6.2 6.5 5.9 6.1 6.0 5.6 5.1 5.2 5.5 5.7 6.1 6.3
9.1 9.2 9.4 9.4 9.3 9.3 8.8 8.8 8.8 8.4 8.8 9.0 8.5 8.1 8.3 8.5 8.5 8.5 8.9 8.4 7.7 7.4 7.4 7.6 7.8 7.2 6.1 5.8 6.7 7.0 6.5 6.4 6.2 5.8 5.9 5.9 5.4 5.1 5.5 5.7 6.0 6.3 6.4
9.2 9.2 9.3 9.5 9.4 9.3 9.1 9.0 8.8 8.7 8.8 8.9 8.6 8.6 8.8 8.7 8.6 8.5 8.4 8.4 7.7 7.4 7.0 5.4 5.5 6.3 6.3 5.6 6.5 6.4 6.1 6.3 6.0 5.7 5.9 5.6 5.4 5.4 5.7 5.9 6.2 6.4 6.5
8.8 8.9 9.0 9.1 9.2 9.2 9.2 9.1 9.0 9.0 9.1 9.1 8.9 8.7 8.6 8.6 8.6 8.5 8.5 8.1 7.8 7.1 6.4 5.4 5.2 4.7 5.6 6.3 5.8 6.2 6.0 5.9 5.8 6.0 5.8 5.4 5.4 5.7 5.8 6.1 6.3 6.4 6.5
8.7 8.8 8.8 8.8 8.8 8.8 8.9 8.8 8.8 8.9 8.9 8.9 8.9 9.0 9.1 8.9 8.6 8.7 8.2 7.3 6.8 6.4 6.5 5.4 5.4 5.1 5.6 5.9 5.8 5.9 5.8 5.4 5.8 6.1 5.5 5.3 5.5 5.7 5.9 6.3 6.5 6.5 6.5
8.3 8.4 8.4 8.5 8.5 8.4 8.4 8.3 8.2 8.1 7.9 7.7 7.7 7.7 7.3 7.6 7.7 7.9 7.9 7.5 6.6 6.9 5.4 6.5 6.0 6.2 6.5 5.8 5.8 5.7 5.5 5.6 5.9 5.6 5.4 5.4 5.6 5.9 6.0 6.4 6.6 6.5 6.6
8.3 8.4 8.3 8.2 8.0 8.0 7.7 7.3 7.4 7.3 7.0 6.2 5.5 5.8 6.4 7.0 6.8 7.0 7.3 6.9 6.6 6.8 6.5 6.4 6.2 6.1 6.1 5.7 5.7 5.6 5.6 5.6 5.7 5.4 5.4 5.5 5.8 5.9 6.1 6.5 6.7 6.6 6.6
7.8 7.8 7.8 7.6 7.4 7.6 7.2 7.0 6.2 5.0 5.1 5.2 5.5 5.5 5.7 6.5 6.5 6.3 6.9 7.0 6.9 6.4 6.3 5.8 6.1 5.8 6.3 5.8 5.6 5.6 5.6 5.5 5.4 5.2 5.4 5.6 5.8 6.0 6.2 6.6 6.8 6.6 6.6
7.1 7.2 6.8 6.6 7.1 7.0 6.5 5.1 4.5 5.1 5.2 5.7 4.6 4.7 3.9 4.1 4.1 5.5 6.3 6.9 6.6 6.1 5.7 5.9 5.6 6.0 5.8 5.2 5.3 5.4 5.5 5.5 5.4 5.3 5.5 5.4 5.9 6.1 6.4 6.8 6.8 6.6 6.5
6.7 6.8 6.4 6.6 6.7 6.2 5.4 5.1 5.0 5.0 5.1 5.7 5.3 4.1 5.4 5.5 5.3 5.5 6.0 6.1 6.8 5.9 5.7 5.8 5.8 5.7 5.3 5.1 5.2 5.4 5.6 5.5 5.4 5.2 5.2 5.7 6.0 6.3 6.6 6.8 6.8 6.6 6.5
6.1 5.8 6.2 6.3 6.1 5.9 5.6 5.3 5.0 5.1 5.2 5.3 5.7 5.8 5.7 6.0 6.0 5.9 6.1 6.1 5.7 5.8 5.9 5.7 5.5 5.5 5.6 5.5 5.6 5.7 5.6 5.6 5.3 5.2 5.6 5.9 6.1 6.5 6.8 6.9 6.9 6.6 6.6
5.6 5.7 6.0 5.7 5.6 5.7 5.8 5.9 5.9 5.9 5.9 5.7 5.6 5.6 5.9 5.9 5.8 5.9 5.4 5.5 5.7 5.6 5.6 5.5 5.3 5.3 5.5 5.6 5.6 5.5 5.2 5.3 5.5 5.8 6.0 6.1 6.3 6.6 6.8 7.1 6.9 6.7 6.5
5.8 5.5 5.3 5.2 5.4 5.4 5.3 5.2 5.2 5.3 5.7 5.9 5.6 5.5 5.6 5.8 5.5 5.4 5.5 5.5 5.2 5.2 5.1 5.0 5.2 5.4 5.8 5.8 5.3 5.2 5.2 5.5 5.9 6.1 6.1 6.3 6.4 6.6 7.0 7.1 6.9 6.7 6.5
5.1 5.0 5.1 5.2 5.3 5.1 4.9 4.9 5.2 5.0 5.1 5.4 5.6 5.3 5.3 4.9 4.9 5.1 5.1 5.3 5.2 5.1 5.0 4.9 4.9 5.1 5.5 5.8 5.8 5.4 5.1 5.5 6.0 6.1 6.2 6.3 6.5 6.7 6.9 7.0 6.9 6.7 6.4
Wind_Speed
21 20 19 18 19 17 16 16 15 15 15 14 14 13 13 13 13 12 12 11 12 11 10 10 11 9 7 7 6 5 5 5 7 4 4 4 3 3 2 2 4 5 7
22 21 21 20 19 19 19 18 17 16 16 15 15 15 14 14 14 15 15 14 14 14 13 12 12 9 10 8 7 8 7 7 6 6 3 5 5 4 4 3 4 5 7
20 21 20 21 20 21 20 19 17 17 16 17 16 15 16 15 15 15 16 16 15 15 15 14 14 13 11 9 9 8 8 6 6 6 5 5 4 4 4 4 4 4 6
22 22 22 22 23 21 20 19 19 18 17 17 16 16 16 17 16 16 17 16 16 15 16 16 15 15 14 13 11 11 9 8 8 7 7 6 6 5 5 6 7 4 4
20 21 23 21 20 20 19 19 19 18 18 18 17 17 17 16 14 17 17 17 17 17 16 16 16 16 16 15 10 12 11 10 8 8 8 7 8 7 7 6 6 5 4
21 23 20 19 20 21 20 20 19 19 18 18 18 18 18 14 17 18 18 16 17 17 16 16 15 16 16 18 16 13 14 12 12 9 9 9 10 8 6 6 5 6 7
21 20 18 18 20 21 19 19 20 20 19 19 19 19 20 20 20 23 24 16 17 16 16 15 15 13 16 16 18 16 14 14 12 12 10 10 8 7 5 5 5 6 7
19 18 16 17 19 19 20 21 20 19 20 19 19 20 19 17 21 24 26 19 17 17 17 17 17 16 17 14 14 14 16 15 14 11 12 10 8 4 6 4 5 5 5
18 19 19 20 20 19 21 22 19 18 18 18 16 18 20 19 21 22 21 19 18 18 16 17 17 16 17 18 14 15 15 13 16 20 12 6 8 8 7 5 6 5 6
19 21 18 18 18 20 21 19 17 17 17 15 17 18 20 19 18 23 23 15 16 14 15 16 17 18 16 18 15 15 14 14 12 11 9 7 10 10 12 10 5 6 5
13 14 15 15 17 15 13 12 13 13 13 16 18 17 19 19 18 25 28 17 14 14 14 13 13 17 15 19 18 13 14 12 11 11 10 8 7 7 7 10 8 6 6
11 14 14 15 14 13 14 12 13 13 14 15 15 13 13 15 17 20 23 27 19 15 15 11 10 19 14 14 13 8 12 12 10 9 9 8 8 7 7 7 8 9 8
12 13 13 14 14 13 15 15 12 16 16 15 14 14 14 14 15 22 28 28 16 13 7 7 9 14 15 9 9 11 14 10 9 9 9 8 7 6 6 6 6 6 6
10 12 12 13 14 14 11 11 13 13 15 15 14 14 11 10 10 6 8 9 4 3 9 8 6 8 9 5 7 8 9 10 9 9 8 6 6 7 7 6 6 5 4
7 9 11 11 13 13 14 13 13 16 18 15 14 14 11 9 7 13 11 12 11 13 11 5 7 6 8 7 6 7 8 8 8 8 8 7 8 7 6 6 5 4 4
4 4 6 8 9 12 10 8 2 6 13 16 13 13 6 18 26 27 26 28 28 22 4 8 8 7 8 9 9 9 9 9 9 9 7 7 8 7 7 6 5 4 4
3 3 2 2 5 6 7 9 10 3 10 10 16 19 24 24 24 26 26 24 14 16 10 9 9 8 8 8 9 10 9 10 9 8 8 8 7 7 7 7 6 5 4
4 3 2 1 1 3 4 5 4 4 4 3 8 15 23 26 24 21 23 21 14 13 14 14 13 11 11 10 10 9 9 9 9 8 8 8 7 7 7 6 5 4 4
5 3 4 6 7 7 6 6 5 3 2 8 7 6 11 10 12 13 12 8 10 10 12 13 13 12 10 10 9 9 10 9 8 8 7 7 7 7 7 6 5 3 1
6 6 6 5 5 5 5 5 4 5 6 7 5 9 4 3 5 9 12 11 12 9 9 9 10 10 11 11 10 10 9 8 8 8 7 7 7 7 6 6 6 5 4
3 5 4 2 3 5 5 4 3 3 4 3 7 7 10 5 5 5 5 8 10 9 9 11 10 11 11 10 10 9 9 9 8 7 7 7 7 7 6 6 6 4 4
4 4 3 3 4 3 2 4 2 1 2 3 2 3 10 6 5 7 6 6 9 9 10 10 10 10 10 10 10 10 9 8 8 7 8 7 7 7 6 7 6 4 4
5 4 4 4 3 3 2 3 4 5 4 4 5 6 7 5 6 6 7 8 9 9 9 9 9 9 9 9 10 9 8 7 8 8 8 7 7 7 7 7 6 5 5
6 5 7 5 3 4 5 4 5 6 7 6 5 3 4 5 7 7 8 8 8 8 8 8 9 11 12 11 9 10 8 8 9 8 8 7 7 7 8 6 5 5 6
8 9 9 6 5 4 4 8 7 4 7 7 6 4 5 5 6 6 6 6 8 7 8 8 9 14 17 17 14 13 13 15 10 9 9 7 9 10 8 6 6 6 9
11 10 9 8 8 6 5 5 6 7 7 6 6 5 4 4 5 5 4 4 6 6 8 8 12 17 17 12 15 17 18 17 12 12 10 8 8 8 7 7 8 7 9
Wind_Direction
203 203 206 209 209 208 207 209 208 203 202 207 209 208 207 202 198 195 201 198 201 206 211 210 217 211 215 210 206 204 208 215 236 197 213 183 229 232 201 195 229 251 261
200 201 203 205 205 205 207 205 204 203 202 203 206 208 208 204 201 201 201 204 204 208 211 212 217 211 213 212 211 210 213 213 242 246 208 201 218 194 207 229 230 255 284
201 200 203 204 204 206 205 204 202 202 203 205 206 205 208 207 202 207 208 207 209 210 211 212 214 208 207 207 209 207 207 211 219 246 243 215 203 210 204 228 251 259 265
201 202 203 204 205 205 204 202 200 200 200 202 202 203 206 210 208 208 210 212 214 214 214 216 215 210 208 202 204 208 208 215 210 222 232 215 219 200 236 260 254 236 280
201 202 207 206 204 203 204 202 205 199 201 201 198 203 202 210 212 208 209 210 213 215 215 218 219 216 207 202 201 206 205 211 210 215 225 224 220 216 231 256 264 292 271
198 206 205 202 200 202 202 200 200 203 203 200 200 200 201 207 202 193 201 209 212 215 215 216 222 208 201 196 202 202 198 200 212 217 226 229 232 230 233 247 269 263 285
203 204 201 200 203 202 201 200 201 202 201 203 205 203 205 209 187 191 197 208 211 215 214 213 219 217 207 208 208 201 199 207 216 211 222 225 235 231 238 215 237 263 281
203 203 202 203 205 202 198 204 202 201 203 202 205 206 208 211 189 192 195 210 216 216 216 215 215 215 210 208 211 210 214 214 216 219 221 231 222 196 198 224 266 267 262
202 203 202 199 201 201 205 207 204 199 203 207 207 207 210 214 190 190 184 210 222 218 217 216 213 213 205 193 199 215 210 211 200 207 217 164 156 177 208 210 231 238 262
203 207 204 202 204 206 209 207 202 204 205 202 205 208 213 219 187 183 187 211 217 217 218 220 208 209 187 175 198 212 214 206 196 181 191 184 196 201 201 226 234 247 270
206 205 205 206 210 211 210 207 212 218 219 208 209 207 210 208 203 189 195 208 217 211 216 214 214 194 170 178 199 203 210 198 191 179 187 190 182 184 192 203 215 243 246
189 196 200 202 205 207 199 196 202 210 223 216 214 218 214 214 217 191 189 207 209 214 217 210 193 169 184 177 192 186 146 174 185 186 186 184 192 192 196 191 203 220 235
187 197 202 204 202 197 195 196 199 195 212 213 214 211 214 210 209 188 193 205 203 203 212 194 166 168 159 175 208 154 161 190 185 188 198 196 192 185 161 163 188 207 224
192 197 201 203 202 203 200 190 194 208 223 217 212 216 212 211 207 164 169 181 135 84 104 117 159 181 176 128 172 163 197 199 196 205 203 178 159 171 179 179 200 196 225
192 199 204 209 203 202 207 209 215 207 216 216 215 212 203 186 176 142 145 132 125 115 100 40 167 148 139 161 198 184 206 201 200 202 184 171 178 182 176 182 203 191 230
150 186 204 211 209 213 200 210 58 346 228 216 209 204 177 142 139 134 132 133 138 143 127 141 157 187 171 163 182 182 198 195 201 191 184 177 184 180 178 190 195 207 236
169 181 166 203 221 212 207 209 215 231 20 241 165 148 148 157 148 143 144 143 158 158 149 147 159 176 179 178 177 183 189 194 185 177 176 178 187 187 183 191 188 195 219
57 68 58 45 198 215 222 228 211 206 184 121 8 143 146 145 151 158 165 150 168 163 162 161 163 178 176 179 184 186 184 178 180 172 179 186 184 187 192 185 184 203 216
31 73 70 73 74 77 63 48 23 4 159 140 125 96 107 108 106 122 188 155 167 159 162 163 156 176 172 178 184 188 180 179 178 173 182 185 182 193 185 180 165 179 170
37 64 91 104 117 104 108 98 79 63 60 69 55 346 335 73 171 173 185 160 156 156 144 149 156 172 164 176 178 176 173 167 164 175 180 176 184 191 182 177 182 191 195
59 68 60 152 115 65 60 39 52 117 154 178 164 186 211 232 202 186 166 161 146 131 150 165 163 162 158 165 166 166 169 162 167 173 170 184 180 179 184 188 190 188 222
84 83 104 114 82 62 87 100 110 109 165 149 108 135 191 221 184 185 152 147 116 142 161 158 155 150 154 159 159 161 162 163 169 175 182 183 181 182 184 196 194 196 221
64 111 98 81 86 155 148 119 117 117 143 152 126 149 195 181 163 167 129 120 136 144 139 140 138 143 148 151 155 160 165 176 178 182 183 180 183 183 191 197 199 213 228
57 63 76 79 90 101 94 75 76 92 108 98 97 79 110 131 139 128 135 130 125 130 142 145 151 154 148 152 152 157 162 164 168 173 179 181 187 174 195 195 203 220 239
32 49 75 70 56 48 67 89 84 74 99 104 109 105 93 75 94 116 114 131 135 143 140 144 161 163 162 159 164 167 139 150 163 152 175 177 186 185 198 202 206 219 232
43 50 45 36 33 38 59 57 47 32 45 66 79 57 61 96 103 106 124 128 146 150 154 165 170 171 166 162 166 154 155 156 147 166 160 163 177 192 196 208 210 229 228